EHI
0 0 0 0 0 0 0 0 0 0 0 0 0 0 0 0 0 0 0 0 0 0 0 0 0 0 0 0 0 0 0 0 0 0 0 0 0 0
0 0 0 0 0 0 0 0 0 0 0 0 0 0 0 0 0 0 0 0 0 0 0 0 0 0 0 0 0 0 0 0 0 0 0 0 0 0
0 0 0 0 0 0 0 0 0 0 0 0 0 0 0 0 0 0 0 0 0 0 0 0 0 0 0 0 0 0 0 0 0 0 0 0 0 0
0 0 0 0 0 0 0 0 0 0 0 0 0 0 0 0 0 0 0 0 0 0 0 0 0 0 0 0 0 0 0 0 0 0 0 0 0 0
0 0 0 0 0 0 0 0 0 0 0 0 0 0 0 0 0 0 0 0 0 0 0 0 0 0 0 0 0 0 0 0 0 0 0 0 0 0
0 0 0 0 0 0 0 0 0 0 0 0 0 0 0 0 0 0 0 0 0 0 0 0 0 0 0 0 0 0 0 0 0 0 0 0 0 0
0 0 0 0 0 0 0 0 0 0 0 0 0 0 0 0 0 0 0 0 0 0 0 0 0 0 0 0 0 0 0 0 0 0 0 0 0 0
0 0 0 0 0 0 0 0 0 0 0 0 0 0 0 0 0 0 0 0 0 0 0 0 0 0 0 0 0 0 0 0 0 0 0 0 0 0
0 0 0 0 0 0 0 0 0 0 0 0 0 0 0 0 0 0 0 0 0 0 0 0 0 0 0 0 0 0 0 0 0 0 0 0 0 0
0 0 0 0 0 0 0 0 0 0 0 0 0 0 0 0 0 0 0 0 0 0 0 0 0 0 0 0 0 0 0 0 0 0 0 0 0 0
0 0 0 0 0 0 0 0 0 0 0 0 0 0 0 0 0 0 0 0 0 0 0 0 0 0 0 0 0 0 0 0 0 0 0 0 0 0
0 0 0 0 0 0 0 0 0 0 0 0 0 0 0 0 0 0 0 0 0 0 0 0 0 0 0 0 0 0 0 0 0 0 0 0 0 0
0 0 0 0 0 0 0 0 0 0 0 0 0 0 0 0 0 0 0 0 0 0 0 0 0 0 0 0 0 0 0 0 0 0 0 0 0 0
0 0 0 0 0 0 0 0 0 0 0 0 0 0 0 0 0 0 0 0 0 0 0 0 0 0 0 0 0 0 0 0 0 0 0 0 0 0
0 0 0 0 0 0 0 0 0 0 0 0 0 0 0 0 0 0 0 0 0 0 0 0 0 0 0 0 0 0 0 0 0 0 0 0 0 0
0 0 0 0 0 0 0 0 0 0 0 0 0 0 0 0 0 0 0 0 0 0 0 0 0 0 0 0 0 0 0 0 0 0 0 0 0 0
0 0 0 0 0 0 0 0 0 0 0 0 0 0 0 0 0 0 0 0 0 0 0 0 0 0 0 0 0 0 0 0 0 0 0 0 0 0
0 0 0 0 0 0 0 0 0 0 0 0 0 0 0 0 0 0 0 0 0 0 0 0 0 0 0 0 0 0 0 0 0 0 0 0 0 0
0 0 0 0 0 0 0 0 0 0 0 0 0 0 0 0 0 0 0 0 0 0 0 0 0 0 0 0 0 0 0 0 0 0 0 0 0 0
0 0 0 0 0 0 0 0 0 0 0 0 0 0 0 0 0 0 0 0 0 0 0 0 0 0 0 0 0 0 0 0 0 0 0 0 0 0
0 0 0 0 0 0 0 0 0 0 0 0 0 0 0 0 0 0 0 0 0 0 0 0 0 0 0 0 0 0 0 0 0 0 0 0 0 0
0 0 0 0 0 0 0 0 0 0 0 0 0 0 0 0 0 0 0 0 0 0 0 0 0 0 0 0 0 0 0 0 0 0 0 0 0 0
0 0 0 0 0 0 0 0 0 0 0 0 0 0 0 0 0 0 0 0 0 0 0 0 0 0 0 0 0 0 0 0 0 0 0 0 0 0
Wind_Speed
3 3 2 2 3 2 1 1 3 4 3 1 1 4 5 5 8 6 6 10 10 9 8 7 6 7 7 7 7 5 5 4 3 4 6 8 9 10
3 4 4 3 3 3 2 1 1 3 3 1 2 4 5 5 7 6 6 9 9 9 7 7 6 7 7 6 5 4 3 3 5 6 8 9 9 10
5 5 5 5 3 3 2 2 1 1 2 1 1 3 4 5 5 5 5 5 6 10 9 8 7 6 5 5 4 2 3 4 5 7 8 8 8 9
5 5 5 4 5 4 3 3 2 2 1 1 1 2 3 4 4 4 4 4 5 8 9 8 6 5 3 2 2 2 3 4 5 6 8 9 9 10
6 6 5 5 5 4 4 3 2 2 1 0 1 1 1 2 3 3 4 4 4 5 6 6 6 4 3 1 2 3 3 5 6 7 8 10 10 11
6 6 6 5 5 4 3 3 2 2 1 1 0 0 1 1 2 2 2 2 3 3 3 3 3 3 3 3 3 4 5 7 8 10 10 11 12 12
6 6 7 7 6 5 3 3 3 2 1 1 0 0 1 1 2 2 2 2 1 2 3 2 2 3 3 3 5 6 8 9 11 12 12 13 13 13
5 5 5 6 7 8 8 7 6 3 2 1 1 1 1 2 2 2 3 3 2 2 4 4 3 4 3 3 4 7 9 10 11 12 13 13 13 13
4 3 3 4 4 4 5 5 6 7 5 3 2 2 2 3 3 3 3 4 4 4 5 4 2 4 3 3 6 8 10 11 11 12 12 13 13 13
3 2 2 2 3 3 2 2 2 3 4 3 2 2 2 2 2 3 3 5 5 2 3 4 3 4 4 4 3 6 7 8 9 10 11 12 12 13
2 1 1 1 3 1 1 1 1 1 2 3 4 4 4 4 4 3 3 4 4 2 1 3 4 5 5 4 1 3 6 6 7 9 10 11 12 12
2 1 1 3 2 1 3 3 2 2 2 2 2 2 2 1 2 3 3 3 3 3 1 3 4 5 5 3 2 3 5 7 9 10 10 11 11 9
2 1 1 3 4 3 3 3 3 4 3 3 3 2 2 1 1 2 2 2 3 3 2 2 3 3 4 5 5 4 5 5 5 7 9 12 13 11
2 2 2 4 4 4 4 3 2 3 3 3 3 2 2 2 2 3 3 4 5 6 6 4 4 4 4 5 6 5 5 6 6 7 6 8 10 14
3 3 4 4 4 3 3 3 3 3 3 4 3 3 2 2 3 3 4 5 7 7 7 7 7 6 6 6 7 7 6 6 6 6 6 6 6 7
4 4 5 4 4 4 4 3 3 3 4 4 4 3 3 3 4 3 4 4 5 5 5 6 7 8 7 9 9 10 8 7 5 6 7 8 8 8
4 4 4 4 4 4 4 4 4 4 4 4 4 4 4 4 4 4 4 4 5 5 5 5 7 8 10 10 9 10 10 10 9 8 7 9 9 9
7 5 5 5 5 4 4 4 4 4 4 4 4 4 4 5 5 4 5 6 7 7 6 5 5 5 6 9 14 12 10 9 8 8 8 10 11 9
8 6 6 5 5 5 5 5 5 4 4 4 5 5 5 5 5 5 6 6 7 7 7 6 5 5 8 9 7 13 10 8 8 9 9 10 11 10
7 7 6 6 6 5 5 5 5 5 5 5 6 5 5 5 6 6 6 7 7 8 8 7 7 8 8 8 8 7 11 12 10 11 10 10 11 14
7 7 7 6 6 6 6 6 6 6 6 6 6 6 6 6 6 7 7 10 9 8 9 9 7 8 7 7 9 10 10 13 15 11 11 10 12 11
7 7 7 6 6 6 6 6 6 6 7 6 6 6 6 6 7 9 8 8 8 8 10 9 8 7 7 9 12 14 13 11 13 19 22 20 11 8
7 7 6 6 6 6 6 7 8 7 6 6 6 6 6 7 7 7 8 8 8 9 10 9 8 8 9 10 12 13 16 15 11 11 12 17 25 30
Wind_Direction
37 40 44 40 33 19 355 287 268 267 262 334 34 27 6 357 358 346 348 354 354 4 14 36 54 90 101 111 115 118 126 134 168 219 237 243 251 262
57 65 61 49 49 38 29 15 306 272 263 49 27 6 354 356 3 358 5 4 15 18 34 53 77 92 96 102 115 136 157 202 232 247 252 256 262 267
66 69 66 56 59 50 46 48 35 302 255 132 51 6 358 2 0 5 12 17 26 35 46 63 79 91 103 116 134 175 221 237 249 254 259 267 271 273
74 74 68 64 62 52 51 55 47 7 293 234 56 13 3 357 356 10 18 22 28 39 46 56 65 80 101 135 178 217 234 242 248 255 263 266 268 271
73 73 70 70 68 59 52 48 39 31 9 231 66 27 356 354 352 10 22 22 27 30 38 43 47 47 42 7 252 243 246 253 256 259 262 265 268 270
72 68 64 63 66 63 55 46 35 44 58 76 104 45 11 356 343 346 356 14 13 10 16 15 17 3 347 330 305 287 274 267 265 264 264 264 264 265
79 67 59 56 61 56 48 36 25 22 28 20 18 290 11 352 355 345 328 331 358 359 326 315 309 290 279 267 270 273 271 268 266 265 264 263 261 261
87 73 66 57 59 61 56 46 31 19 8 345 296 320 3 354 344 344 331 319 312 23 325 304 296 286 284 281 287 280 274 270 266 264 262 262 261 261
82 75 66 60 48 51 59 58 54 48 30 336 338 0 355 2 353 328 336 321 316 343 322 297 299 293 296 280 284 287 282 275 270 266 262 260 259 259
81 69 66 60 54 23 26 37 41 48 33 10 11 12 356 336 313 308 315 302 287 277 298 291 313 308 307 290 284 288 284 278 271 267 265 262 261 262
117 80 2 18 64 13 343 325 291 87 60 21 4 354 346 330 313 292 298 303 300 304 333 295 315 317 302 286 242 251 273 279 281 278 274 269 266 267
180 192 324 332 356 313 305 301 303 326 320 297 274 255 281 316 313 293 291 287 294 305 23 306 313 331 315 302 287 269 264 267 276 278 277 275 275 270
231 242 250 310 306 304 290 296 312 305 298 297 290 283 272 273 296 314 309 273 274 273 325 325 297 302 288 297 300 288 282 284 279 271 267 269 268 264
246 251 264 287 295 299 286 294 284 276 285 279 274 275 284 295 308 305 297 283 265 267 286 289 268 272 282 287 284 290 286 279 277 278 278 275 268 260
249 256 273 284 283 275 275 279 267 265 270 269 273 280 287 293 288 278 264 255 256 253 250 238 239 253 251 260 277 287 295 287 276 269 266 260 262 260
238 238 248 260 263 271 264 248 253 266 276 276 280 282 281 266 265 276 284 291 286 267 222 223 232 237 246 253 261 271 272 273 269 258 266 269 265 258
231 237 239 245 250 244 244 248 248 246 250 261 268 270 269 270 269 271 272 276 269 277 276 240 228 234 247 257 262 260 262 261 260 264 265 267 262 255
232 240 245 247 251 254 253 250 248 248 249 254 258 262 268 271 273 268 259 261 269 273 275 274 271 271 260 246 230 251 260 263 266 261 259 266 270 263
239 243 247 250 250 248 248 248 249 246 244 249 254 256 259 262 265 266 265 264 266 270 272 269 259 254 270 281 254 216 241 264 271 269 264 262 269 272
235 241 246 246 245 243 242 243 245 244 236 241 246 248 249 254 258 260 261 262 269 274 274 263 249 243 250 274 284 268 241 256 267 270 272 271 271 274
232 237 241 242 240 240 240 240 242 244 245 244 247 247 244 245 252 256 260 264 264 266 268 268 265 264 265 267 266 263 258 244 244 256 270 275 278 276
233 234 235 234 234 234 235 235 237 240 240 239 244 245 242 242 249 254 257 261 262 264 270 274 275 266 253 253 264 276 282 277 265 260 256 251 257 265
231 231 231 229 226 226 229 233 237 243 244 244 245 246 244 245 249 252 256 257 262 266 270 274 273 264 258 258 265 272 278 281 279 275 263 253 250 253